Regional Weather Roundup
Issued by NWS Boston, MA

Current Version | Previous Version | Text Only | Print | Product List | Glossary Off
Versions: 1 2 3 4 5 6 7 8 9 10 11 12 13 14 15 16 17 18 19 20 21 22 23 24 25 26 27 28 29 30 31 32 33 34 35 36 37 38 39 40 41 42 43 44 45 46 47 48 49 50
872 ASUS41 KBOX 292310 RWRBOX REGIONAL WEATHER ROUNDUP NATIONAL WEATHER SERVICE TAUNTON MA 700 PM EDT MON MAY 29 2017 NOTE: "FAIR" INDICATES FEW OR NO CLOUDS BELOW 12,000 FEET WITH NO SIGNIFICANT WEATHER AND/OR OBSTRUCTIONS TO VISIBILITY. MAZALL-300000- EASTERN MASSACHUSETTS CITY SKY/WX TMP DP RH WIND PRES REMARKS BOSTON DRIZZLE 50 49 96 NE12 30.11R BEVERLY LGT RAIN 50 48 93 N7 30.11R LAWRENCE CLOUDY 51 47 86 NE9 30.12R BEDFORD CLOUDY 50 46 86 NE7 30.09R BLUE HILL N/A 47 46 97 NE12G17 30.07R NORWOOD LGT RAIN 51 49 92 NE7 30.09R FOG MARSHFIELD LGT RAIN 50 50 100 NE7 30.09S PLYMOUTH LGT RAIN 50 48 93 NE10 30.08S TAUNTON CLOUDY 51 49 92 VRB3 30.08R NEW BEDFORD LGT RAIN 51 50 96 N5 30.07R $$ MAZALL-300000- CAPE COD AND THE ISLANDS CITY SKY/WX TMP DP RH WIND PRES REMARKS FALMOUTH CLOUDY 50 50 100 MISG 30.08S FOG HYANNIS CLOUDY 51 50 96 NE10 30.06R CHATHAM CLOUDY 50 50 100 NE8 30.08R PROVINCETOWN LGT RAIN 50 48 93 NE10 30.09R NANTUCKET CLOUDY 51 49 92 N15 30.05R FOG MARTHAS VNYRD CLOUDY 53 50 89 N12 30.06R $$ MAZALL-300000- CENTRAL AND WESTERN MASSACHUSETTS CITY SKY/WX TMP DP RH WIND PRES REMARKS WORCESTER FOG 48 46 93 E6 30.09R VSB 1/2 FITCHBURG CLOUDY 51 48 89 NE7 30.11R ORANGE CLOUDY 53 49 86 E6 30.08R SPRINGFIELD CLOUDY 54 50 85 VRB3 30.06R WESTFIELD CLOUDY 55 53 93 NE3 30.07R NORTH ADAMS CLOUDY 54 49 83 E6 30.06R $$ RIZALL-300000- RHODE ISLAND CITY SKY/WX TMP DP RH WIND PRES REMARKS PROVIDENCE LGT RAIN 51 51 100 NE8 30.09R FOG NEWPORT CLOUDY 51 51 100 NE9 30.07R BLOCK ISLAND CLOUDY 52 50 93 NE8 30.07R SMITHFIELD CLOUDY 49 48 97 NE7 30.09R WESTERLY CLOUDY 54 52 93 NE3 30.08R $$ CTZALL-300000- CONNECTICUT CITY SKY/WX TMP DP RH WIND PRES REMARKS BRADLEY INTL CLOUDY 57 52 83 CALM 30.07R HARTFORD CLOUDY 58 52 80 CALM 30.07R BRIDGEPORT CLOUDY 57 51 80 SE6 30.07R DANBURY PTSUNNY 55 52 89 SE3 30.07R GROTON CLOUDY 55 51 86 NE7 30.06R NEW HAVEN CLOUDY 56 53 90 CALM 30.08R CHESTER CLOUDY 55 54 94 CALM 30.07R MERIDEN CLOUDY 57 52 83 CALM 30.07R WILLIMANTIC CLOUDY 56 51 84 E8 30.07R OXFORD CLOUDY 54 48 82 CALM 30.08R $$ MEZ002-015-021-024-NHZ003-005-008-011-012-014-VTZ005-008-300000- NORTHERN NEW ENGLAND CITY SKY/WX TMP DP RH WIND PRES REMARKS PORTLAND ME CLOUDY 46 45 96 E10 30.13F FOG BANGOR ME CLOUDY 54 45 71 SW7 30.14R CONCORD NH CLOUDY 50 47 89 E6 30.11R MANCHESTER NH CLOUDY 50 45 83 E5 30.10R NASHUA NH CLOUDY 50 48 93 E5 30.12R PORTSMOUTH NH CLOUDY 47 46 94 E8 30.10S JAFFREY NH CLOUDY 48 48 100 CALM 30.09R KEENE NH CLOUDY 51 48 89 CALM 30.09R BURLINGTON VT CLOUDY 57 51 80 SE9 29.98R MT. WASHINGTON FOG 32 32 100 S23 N/A VSB 1/16WCI 19 $$ NYZ052-076-300000- EASTERN NEW YORK CITY SKY/WX TMP DP RH WIND PRES REMARKS ALBANY CLOUDY 57 51 80 SE8 30.03R NEW YORK CITY CLOUDY 57 52 83 NE9 30.06R $$ ANZALL-300000- MARINE OBSERVATIONS STATION/POSITION TIME TEMP WIND PRES VSBY WAVE AIR SEA DIR/SP/G HT/PER (UTC) (F) (DEG/KT/KT) (MB) (MI) (FT/S) BOSTON BUOY 2250 49 52 40/ 14/ 16 1018.3R 3/ 6 BUZZARDS BAY 2200 51 10/ 15/ 17 1017.7R NANTUCKET SOUND 2250 54 1017.6R 2/ 4 MASS BAY-STELLWA 2204 49 51 40/ 12/ 14 1018.4R 4/ 7 ISLE OF SHOALS 2200 46 50/ 13/ 14 1019.1F S OF BLOCK IS 2255 53 N/A 5/ 7 $$ ......................KEY......................... SKY/WX - SKY CONDITION/PRESENT WEATHER TMP - TEMPERATURE IN FAHRENHEIT DWPT - DEWPOINT IN FAHRENHEIT RH - RELATIVE HUMIDITY IN PERCENT WIND - DIRECTION AND SPEED IN MPH PRES - MEAN SEA LEVEL PRESSURE IN INCHES OF HG WCI - WIND CHILL INDEX VSB - VISIBILITY IN MILES HX - HEAT INDEX TC - TEMPERATURE IN CELSIUS VRB - VARIABLE WIND DIRECTION N/A - NOT AVAILABLE

USA.gov is the U.S. government's official web portal to all federal, state and local government web resources and services.